Strona główna
METAR-TAF:

METAR-TAF

Lotnisko :

Wahpeton, Dakota Północna, Stany Zjednoczone

Szerokość geograficzna: 46-14-39N, Długość geograficzna: 096-36-26W, wysokość: 295 m

Aktualna obserwacja pogody

Raport powstał 22 minut temu, godzina 11:55 UTC
Cisza
Temperatura 0°C
Wilgotność 93%
Ciśnienie 1011 hPa
Widzialność: 11.3 km

METAR: KBWP 281155Z AUTO 00000KT 7SM 00/M01 A2984 RMK AO1

czas: 07:17 (12:17 UTC)


TAF: brakujący

Obserwacja i prognoza pogody dla ponad 4000 lotnisk (raport METAR i TAF).

Dostępne stacje oznaczono żółtymi i czerwonymi punktami na mapie.

Najedź kursorem aby zobaczyć nazwę stacji.

Kliknij aby zobaczyć obserwacje i prognozy pogody.

Aby zmienić mapę: kliknij na zielony przycisk z czarnym krzyżykiem, aby powiększyć; na zielony przycisk z myślnikiem, aby pomniejszyć; na zielone strzałki, aby przejść do map sąsiednich.


METAR-TAF: